Latest Weather Observations for Terrey Hills

IDN60901

Issued at 4:15 pm EDT Tuesday 21 October 2014 (issued every 10 minutes, with the page automatically refreshed every 10 minutes)

About weather observations | Map of Sydney area stations | Latest observations for Sydney area | Other Formats
Station Details ID: 066059 Name: TERREY HILLS AWS Lat: -33.69 Lon: 151.23 Height: 199.0 m
Data from the previous 72 hours. | See also: Recent months at Terrey Hills
Date/Time
EDT
Tmp

°C
App
Tmp
°C
Dew
Point
°C
Rel
Hum
%
Delta-T

°C
Wind Press
QNH
hPa
Press
MSL
hPa
Rain
since
9 am
mm
Dir
 
Spd
km/h
Gust
km/h
Spd
kts
Gust
kts
21/04:00pm 15.5 13.5 10.3 71 2.8 ENE 11 20 6 11 - - 0.0
21/03:30pm 15.7 13.4 8.9 64 3.5 E 11 22 6 12 - - 0.0
21/03:00pm 16.5 14.2 9.0 61 3.9 ENE 11 17 6 9 - - 0.0
21/02:30pm 16.3 13.9 8.5 60 4.0 E 11 19 6 10 - - 0.0
21/02:00pm 16.3 14.0 7.3 55 4.5 E 9 17 5 9 - - 0.0
21/01:30pm 16.1 13.8 7.3 56 4.4 E 9 15 5 8 - - 0.0
21/01:00pm 16.4 14.2 7.9 57 4.3 E 9 17 5 9 - - 0.0
21/12:30pm 16.0 13.5 8.0 59 4.1 E 11 17 6 9 - - 0.0
21/12:00pm 15.9 14.2 8.2 60 3.9 E 7 15 4 8 - - 0.0
21/11:30am 16.0 14.1 9.0 63 3.6 ESE 9 15 5 8 - - 0.0
21/11:00am 15.6 13.5 8.4 62 3.7 ESE 9 17 5 9 - - 0.0
21/10:30am 15.2 13.6 8.9 66 3.2 ESE 7 15 4 8 - - 0.0
21/10:00am 15.0 13.4 8.9 67 3.1 ESE 7 13 4 7 - - 0.0
21/09:30am 14.9 14.0 10.5 75 2.3 E 6 9 3 5 - - 0.0
21/09:00am 14.6 13.4 9.6 72 2.6 SE 6 7 3 4 - - 4.4
21/08:30am 14.1 12.9 9.5 74 2.4 ESE 6 13 3 7 - - 4.4
21/08:00am 13.5 12.4 9.9 79 1.9 ESE 6 11 3 6 - - 4.4
21/07:30am 13.4 12.1 9.3 76 2.1 SE 6 7 3 4 - - 4.4
21/07:00am 13.2 12.0 9.6 79 1.9 ESE 6 9 3 5 - - 4.4
21/06:30am 12.9 11.7 9.7 81 1.7 ESE 6 9 3 5 - - 4.4
21/06:00am 12.5 10.9 10.2 86 1.2 ESE 9 15 5 8 - - 4.4
21/05:30am 12.4 11.9 10.8 90 0.8 SE 4 7 2 4 - - 4.4
21/05:00am 12.2 11.8 11.1 93 0.6 SSE 4 7 2 4 - - 4.4
21/04:30am 12.0 11.6 11.2 95 0.4 SE 4 7 2 4 - - 4.4
21/04:00am 11.9 11.6 11.4 97 0.3 SE 4 6 2 3 - - 4.4
21/03:30am 12.0 11.7 11.5 97 0.3 SE 4 7 2 4 - - 4.4
21/03:00am 12.4 11.9 12.1 98 0.2 ESE 6 9 3 5 - - 4.0
21/02:30am 12.5 12.4 12.2 98 0.2 ESE 4 7 2 4 - - 4.0
21/02:00am 12.6 12.2 12.3 98 0.2 E 6 11 3 6 - - 4.0
21/01:30am 12.6 12.0 12.3 98 0.2 E 7 13 4 7 - - 3.8
21/01:00am 12.7 12.3 12.4 98 0.2 SE 6 9 3 5 - - 3.6
21/12:30am 12.8 12.8 12.3 97 0.3 E 4 11 2 6 - - 3.0
21/12:00am 12.9 12.8 12.1 95 0.4 NE 4 9 2 5 - - 1.2
 
Date/Time
EDT
Tmp

°C
App
Tmp
°C
Dew
Point
°C
Rel
Hum
%
Delta-T

°C
Wind Press
QNH
hPa
Press
MSL
hPa
Rain
since
9 am
mm
Dir
 
Spd
km/h
Gust
km/h
Spd
kts
Gust
kts
20/11:30pm 13.0 12.2 11.7 92 0.7 E 7 11 4 6 - - 1.2
20/11:00pm 13.3 12.4 11.5 89 1.0 SE 7 17 4 9 - - 1.0
20/10:30pm 13.3 12.6 12.0 92 0.7 ESE 7 13 4 7 - - 1.0
20/10:00pm 13.2 12.1 11.9 92 0.7 ESE 9 15 5 8 - - 1.0
20/09:30pm 13.1 12.4 12.0 93 0.6 SE 7 15 4 8 - - 1.0
20/09:00pm 14.2 12.6 11.7 85 1.4 ESE 11 19 6 10 - - 0.6
20/08:30pm 13.9 13.0 11.4 85 1.3 SE 7 13 4 7 - - 0.6
20/08:00pm 13.9 12.0 11.9 88 1.1 ESE 13 24 7 13 - - 0.6
20/07:30pm 14.2 13.0 11.7 85 1.4 ESE 9 17 5 9 - - 0.6
20/07:00pm 14.8 13.1 11.2 79 1.9 SE 11 19 6 10 - - 0.6
20/06:30pm 14.6 13.2 11.0 79 1.9 SE 9 19 5 10 - - 0.6
20/06:00pm 14.4 12.4 11.6 83 1.5 SSE 13 22 7 12 - - 0.6
20/05:30pm 14.3 13.3 12.3 88 1.1 SSE 9 22 5 12 - - 0.6
20/05:00pm 13.9 11.8 12.5 91 0.8 SSE 15 33 8 18 - - 0.6
20/04:30pm 14.3 12.4 12.9 91 0.8 SSE 15 28 8 15 - - 0.6
20/04:00pm 14.6 14.2 14.0 96 0.3 S 9 17 5 9 - - 0.6
20/03:30pm 14.1 13.6 13.8 98 0.2 S 9 15 5 8 - - 0.6
20/03:00pm 14.2 12.9 13.6 96 0.3 S 13 26 7 14 - - 0.6
20/02:30pm 15.0 13.6 13.5 91 0.8 S 13 28 7 15 - - 0.2
20/02:00pm 15.4 14.3 14.3 93 0.6 SSE 13 22 7 12 - - 0.2
20/01:30pm 15.4 15.1 14.3 93 0.6 S 9 17 5 9 - - 0.2
20/01:00pm 15.3 14.0 13.7 90 0.9 S 13 24 7 13 - - 0.0
20/12:30pm 17.2 15.0 12.1 72 2.8 S 15 26 8 14 - - 0.0
20/12:00pm 17.1 14.8 11.6 70 3.0 S 15 30 8 16 - - 0.0
20/11:30am 16.7 13.7 10.8 68 3.2 S 17 35 9 19 - - 0.0
20/11:00am 16.4 13.9 10.9 70 3.0 S 15 41 8 22 - - 0.0
20/10:30am 16.1 12.7 11.3 73 2.6 S 20 41 11 22 - - 0.0
20/10:00am 16.3 12.2 11.5 73 2.6 S 24 44 13 24 - - 0.0
20/09:30am 16.8 13.4 11.3 70 3.0 S 20 41 11 22 - - 0.0
20/09:00am 17.2 14.1 11.7 70 3.0 S 19 35 10 19 - - 0.0
20/08:34am 17.2 12.5 11.9 71 2.9 S 28 57 15 31 - - 0.0
20/08:30am 17.1 12.7 11.8 71 2.9 SSE 26 52 14 28 - - 0.0
20/08:00am 17.0 14.2 12.7 76 2.4 SSE 19 35 10 19 - - 0.0
20/07:30am 16.4 13.7 12.9 80 2.0 S 19 41 10 22 - - 0.0
20/07:00am 16.4 12.1 13.1 81 1.9 S 28 57 15 31 - - 0.0
20/06:49am 16.6 12.5 13.9 84 1.5 S 28 48 15 26 - - 0.0
20/06:30am 16.7 14.0 14.5 87 1.3 S 22 43 12 23 - - 0.0
20/06:00am 16.4 12.7 11.6 73 2.6 SSW 22 37 12 20 - - 0.0
20/05:30am 14.4 12.3 11.0 80 1.8 W 13 15 7 8 - - 0.0
20/05:00am 14.9 13.1 10.7 76 2.2 WNW 11 13 6 7 - - 0.0
20/04:30am 15.6 14.1 10.6 72 2.7 WNW 9 13 5 7 - - 0.0
20/04:00am 15.0 13.4 11.4 79 1.9 WNW 11 11 6 6 - - 0.0
20/03:30am 15.2 13.4 11.0 76 2.3 W 11 13 6 7 - - 0.0
20/03:00am 16.6 15.6 11.1 70 3.0 WNW 7 11 4 6 - - 0.0
20/02:30am 15.9 15.2 11.5 75 2.4 WNW 6 9 3 5 - - 0.0
20/02:00am 17.2 15.6 11.7 70 3.0 NW 11 19 6 10 - - 0.0
20/01:30am 17.7 16.5 11.7 68 3.3 NNW 9 15 5 8 - - 0.0
20/01:00am 17.7 16.2 11.9 69 3.2 NNW 11 19 6 10 - - 0.0
20/12:30am 17.0 16.2 12.9 77 2.3 NNW 9 17 5 9 - - 0.0
20/12:00am 17.1 15.5 12.8 76 2.4 N 13 19 7 10 - - 0.0
 
Date/Time
EDT
Tmp

°C
App
Tmp
°C
Dew
Point
°C
Rel
Hum
%
Delta-T

°C
Wind Press
QNH
hPa
Press
MSL
hPa
Rain
since
9 am
mm
Dir
 
Spd
km/h
Gust
km/h
Spd
kts
Gust
kts
19/11:30pm 17.2 15.4 13.3 78 2.2 N 15 22 8 12 - - 0.0
19/11:00pm 17.1 15.6 13.2 78 2.2 N 13 20 7 11 - - 0.0
19/10:30pm 17.1 15.5 12.8 76 2.4 N 13 19 7 10 - - 0.0
19/10:00pm 16.9 15.3 12.8 77 2.3 N 13 19 7 10 - - 0.0
19/09:30pm 17.1 15.1 12.8 76 2.4 NNE 15 24 8 13 - - 0.0
19/09:00pm 17.1 15.1 12.6 75 2.5 NNE 15 24 8 13 - - 0.0
19/08:30pm 17.1 15.1 12.8 76 2.4 NNE 15 26 8 14 - - 0.0
19/08:00pm 17.1 15.6 13.0 77 2.3 NNE 13 24 7 13 - - 0.0
19/07:30pm 17.3 16.2 13.0 76 2.4 NNE 11 19 6 10 - - 0.0
19/07:00pm 17.5 16.8 13.2 76 2.4 NE 9 20 5 11 - - 0.0
19/06:30pm 18.4 17.5 12.6 69 3.3 NNE 9 20 5 11 - - 0.0
19/06:00pm 19.3 18.2 12.1 63 4.0 NE 9 19 5 10 - - 0.0
19/05:30pm 19.8 18.7 12.1 61 4.3 NE 9 17 5 9 - - 0.0
19/05:00pm 20.7 19.6 12.1 58 4.9 NE 9 17 5 9 - - 0.0
19/04:30pm 21.2 20.1 11.8 55 5.3 NNE 9 22 5 12 - - 0.0
19/04:00pm 21.5 20.2 11.2 52 5.7 NNE 9 17 5 9 - - 0.0
19/03:30pm 22.1 21.1 12.4 54 5.5 NNE 9 17 5 9 - - 0.0
19/03:00pm 22.9 22.2 13.1 54 5.7 NE 9 20 5 11 - - 0.0
19/02:30pm 22.9 21.6 12.5 52 6.0 NE 11 17 6 9 - - 0.0
19/02:00pm 23.6 22.4 12.9 51 6.2 NE 11 19 6 10 - - 0.0
19/01:30pm 23.4 22.1 12.4 50 6.3 NE 11 20 6 11 - - 0.0
19/01:00pm 23.3 22.5 11.7 48 6.6 NNE 7 15 4 8 - - 0.0
19/12:30pm 22.3 20.5 9.5 44 7.0 N 9 17 5 9 - - 0.0
19/12:00pm 21.4 19.4 8.7 44 6.8 N 9 17 5 9 - - 0.0
19/11:30am 20.7 18.9 9.3 48 6.1 N 9 13 5 7 - - 0.0
19/11:00am 20.0 17.6 8.7 48 6.0 N 11 19 6 10 - - 0.0
19/10:30am 19.4 17.5 9.0 51 5.5 N 9 17 5 9 - - 0.0
19/10:00am 18.6 16.9 9.9 57 4.7 N 9 17 5 9 - - 0.0
19/09:30am 17.7 16.5 10.3 62 4.0 NNW 7 13 4 7 - - 0.0
19/09:00am 16.4 15.4 10.9 70 3.0 NNW 7 13 4 7 - - 0.0
19/08:30am 15.4 14.6 11.2 76 2.3 NW 6 11 3 6 - - 0.0
19/08:00am 14.4 13.2 10.4 77 2.1 NNW 7 13 4 7 - - 0.0
19/07:30am 13.6 11.9 9.8 78 2.0 N 9 15 5 8 - - 0.0
19/07:00am 12.5 11.1 9.5 82 1.5 NNW 7 11 4 6 - - 0.0
19/06:30am 11.8 10.4 9.5 86 1.2 NNW 7 11 4 6 - - 0.0
19/06:00am 11.6 10.2 9.5 87 1.1 NNW 7 11 4 6 - - 0.0
19/05:30am 11.4 9.9 9.1 86 1.2 NNW 7 11 4 6 - - 0.0
19/05:00am 12.1 10.7 9.5 84 1.3 NNW 7 13 4 7 - - 0.0
19/04:30am 12.2 10.8 9.6 84 1.3 N 7 11 4 6 - - 0.0
19/04:00am 12.2 10.1 9.8 85 1.2 N 11 15 6 8 - - 0.0
19/03:30am 12.1 10.7 9.7 85 1.2 NNW 7 13 4 7 - - 0.0
19/03:00am 12.6 10.9 9.8 83 1.4 N 9 15 5 8 - - 0.0
19/02:30am 13.0 10.9 9.8 81 1.7 N 11 17 6 9 - - 0.0
19/02:00am 12.9 10.8 9.9 82 1.6 N 11 15 6 8 - - 0.0
19/01:30am 13.0 11.4 10.2 83 1.5 N 9 13 5 7 - - 0.0
19/01:00am 13.2 11.7 10.4 83 1.5 N 9 13 5 7 - - 0.0
19/12:30am 13.4 11.4 10.2 81 1.7 N 11 15 6 8 - - 0.0
19/12:00am 13.7 11.7 10.1 79 1.9 N 11 17 6 9 - - 0.0
 
Date/Time
EDT
Tmp

°C
App
Tmp
°C
Dew
Point
°C
Rel
Hum
%
Delta-T

°C
Wind Press
QNH
hPa
Press
MSL
hPa
Rain
since
9 am
mm
Dir
 
Spd
km/h
Gust
km/h
Spd
kts
Gust
kts
18/11:30pm 13.7 12.0 9.9 78 2.0 N 9 15 5 8 - - 0.0
18/11:00pm 13.9 11.8 9.7 76 2.2 N 11 17 6 9 - - 0.0
18/10:30pm 14.1 12.4 9.9 76 2.2 NNE 9 15 5 8 - - 0.0
18/10:00pm 13.8 12.5 9.8 77 2.1 NNE 7 15 4 8 - - 0.0
18/09:30pm 13.8 12.4 9.5 75 2.2 NE 7 13 4 7 - - 0.0
18/09:00pm 13.6 11.8 9.3 75 2.2 NE 9 15 5 8 - - 0.0
18/08:30pm 13.6 12.1 9.1 74 2.3 NE 7 11 4 6 - - 0.0
18/08:00pm 13.5 11.9 8.8 73 2.4 NE 7 13 4 7 - - 0.0
18/07:30pm 13.9 12.3 8.7 71 2.6 NE 7 15 4 8 - - 0.0
18/07:00pm 14.7 12.3 8.6 67 3.1 ENE 11 24 6 13 - - 0.0
18/06:30pm 15.4 12.2 8.4 63 3.6 ENE 15 22 8 12 - - 0.0
18/06:00pm 15.9 12.1 7.4 57 4.3 ENE 17 26 9 14 - - 0.0
18/05:30pm 16.4 13.3 7.1 54 4.7 ENE 13 20 7 11 - - 0.0
18/05:00pm 16.8 13.7 7.2 53 4.8 E 13 20 7 11 - - 0.0
18/04:30pm 17.1 14.0 7.2 52 5.0 E 13 19 7 10 - - 0.0

Latest Capital City Observations: Canberra | Sydney | Melbourne | Brisbane | Adelaide | Perth | Hobart | Darwin

Other Formats:

Comma delimited format used in spreadsheet applications
http://www.bom.gov.au/fwo/IDN60901/IDN60901.94759.axf

JavaScript Object Notation format (JSON) in row-major order
http://www.bom.gov.au/fwo/IDN60901/IDN60901.94759.json